Home   Weather   Kunming   Past weeks

Flag for China Past Weather in Kunming, Yunnan, China — Yesterday and Last 2 Weeks

Now
61 °F

Clear.


Feels Like: 61 °F
Forecast: 59 / 80 °F
Wind: 6 mph from Southwest

Location: Kunming Airport

Current Time: Aug 20, 2017 at 4:44:39 am

Latest Report: Aug 20, 2017 at 4:00 am


Visibility: 10 mi

Pressure: 30.15 "Hg (24.06 "Hg at 1909m altitude)

Humidity: 94%

Dew Point: 59 °F

Location of KunmingLocation

Past Weather in Kunming — Graph

°F

Kunming Temperature Yesterday

Maximum temperature yesterday: 77 °F (at 5:00 pm)
Minimum temperature yesterday: 61 °F (at 12:00 am)
Average temperature yesterday: 67 °F

High & Low Weather Summary for the Past Weeks

 TemperatureHumidityPressure
High77 °F (Aug 7, 4:00 pm)100% (Aug 5, 3:00 am)30.24 "Hg (Aug 5, 3:00 am)
Low59 °F (Aug 9, 7:00 am)41% (Aug 9, 2:00 pm)29.98 "Hg (Aug 5, 4:00 am)
Average67 °F84%30.08 "Hg
* Reported Aug 5 3:00 am — Aug 20 3:00 am, Kunming. Weather by CustomWeather, © 2017

Note: Actual official high and low records may vary slightly from our data, if they occured in-between our weather recording intervals... More about our weather records

Advertising

Kunming Weather History for the Previous 24 Hours

Scroll right to see more
 ConditionsComfort  
Time TempWeatherWind HumidityBarometerVisibility
3:00 am
Sun, Aug 20
61 °FClear.8 mph94%30.15 "Hg10 mi
2:00 am63 °FClear.6 mph88%30.18 "Hg10 mi
1:00 am63 °FClear.8 mph88%30.18 "Hg10 mi
12:00 am64 °FPassing clouds.8 mph88%30.21 "HgN/A
11:00 pm
Sat, Aug 19
66 °FPassing clouds.8 mph83%30.21 "HgN/A
10:00 pm66 °FPassing clouds.10 mph83%30.18 "HgN/A
9:00 pm68 °FPassing clouds.8 mph83%30.15 "HgN/A
8:00 pm68 °FPassing clouds.6 mph78%30.12 "HgN/A
7:00 pm72 °FScattered clouds.10 mph65%30.09 "HgN/A
6:00 pm75 °FScattered clouds.13 mph54%30.09 "HgN/A
5:00 pm77 °FScattered clouds.8 mph54%30.12 "HgN/A
4:00 pm75 °FBroken clouds.10 mph54%30.12 "HgN/A
3:00 pm75 °FBroken clouds.13 mph57%30.15 "HgN/A
2:00 pm73 °FBroken clouds.13 mph57%30.18 "HgN/A
1:00 pm72 °FBroken clouds.13 mph61%30.21 "HgN/A
12:00 pm70 °FBroken clouds.13 mph64%30.21 "HgN/A
11:00 am68 °FScattered clouds.10 mph73%30.24 "HgN/A
10:00 am64 °FBroken clouds.13 mph83%30.24 "HgN/A
9:00 am64 °FBroken clouds.13 mph83%30.21 "HgN/A
8:00 am63 °FBroken clouds.10 mph88%30.21 "HgN/A
7:00 am61 °FScattered clouds.10 mph94%30.21 "HgN/A
6:00 am61 °FPassing clouds.10 mph94%30.18 "HgN/A
5:00 am63 °FPartly cloudy.10 mph88%30.18 "HgN/A
4:00 am63 °FPartly cloudy.10 mph88%30.18 "HgN/A
Weather by CustomWeather, © 2017

See weather overviewHow to use our weather pages